Find Local Weather

World > North America > United States > Arizona

Overgaard, Arizona Regional Weather

Lat: 34.39N, Lon: 110.55W
Wx Zone: AZZ016
Feedback
Expires:201809241400;;135477
ASUS45 KPSR 241310
RWRAZ 

ARIZONA HOURLY REGIONAL WEATHER ROUNDUP
NATIONAL WEATHER SERVICE PHOENIX AZ
600 AM MST MON SEP 24 2018

NOTE: FAIR INDICATES FEW OR NO CLOUDS BELOW 12,000 FEET WITH NO
SIGNIFICANT WEATHER AND/OR OBSTRUCTIONS TO VISIBILITY.


AZZ004>008-015-016-018-241400-
NORTH CENTRAL ARIZONA
  
CITY           SKY/WX    TMP DP  RH WIND       PRES   REMARKS
GRAND CANYON   PTCLDY    45  36  70 CALM      30.15S                  
WILLIAMS       PTCLDY    50  39  66 S7        30.15R                  
PRESCOTT       CLOUDY    67  46  47 SE5       30.06R                  
FLAGSTAFF      CLOUDY    48  38  68 MISG      30.18R                  
PAYSON         CLOUDY    63  34  34 CALM      30.08S                  
PAGE           PTCLDY    69  39  33 S3        29.95S                  
$$


SKY/WX - Weather  TMP - Temperature  DP - Dew Point  RH - Relative Humidity
WIND - Wind Direction/Speed PRES - Barometric Pressure